Regional Weather Roundup
Issued by NWS Grand Forks, ND

Home | Current Version | Previous Version | Graphics & Text | Print | Product List | Glossary On
Versions: 1 2 3 4 5 6 7 8 9 10 11 12 13 14 15 16 17 18 19 20 21 22 23 24 25 26 27 28 29 30 31 32 33 34 35 36 37 38 39 40 41 42 43 44 45 46 47 48 49 50
000
ASUS43 KFGF 190710
RWRFGF
PRAIRIE TO PINES  WEATHER ROUNDUP
NATIONAL WEATHER SERVICE EASTERN NORTH DAKOTA/GRAND FORKS ND
200 AM CDT TUE SEP 19 2017

 **SATELLITE DATA USED TO AUGMENT SKY COVER AT AUTOMATED STATIONS**
 *****  WEATHER ACROSS EASTERN NORTH DAKOTA  *****

CITY           SKY/WX    TMP DP  RH WIND       PRES   REMARKS
GRAND FORKS    CLOUDY    60  58  92 SE12      29.81F
GRAND FRKS AFB CLOUDY    59  57  94 SE9       29.82F
DEVILS LAKE    FOG       57  55  94 SE12      29.77F VSB 3/4
FARGO          CLOUDY    61  59  93 SE15G21   29.83S
WAHPETON ARPT  CLOUDY    59  55  88 SE7       29.84F
$$

 ***** WEATHER ACROSS CENTRAL AND WESTERN NORTH DAKOTA  *****

CITY           SKY/WX    TMP DP  RH WIND       PRES   REMARKS
BISMARCK       FAIR      52  49  89 E9        29.72F
MINOT          FAIR      51  48  89 E5        29.69F
JAMESTOWN      FOG       53  53 100 E5        29.76F VSB 1/4
MINOT AFB      FAIR      50  48  92 SE7       29.68F
GARRISON         N/A     53  49  86 E9        29.69F
WILLISTON      FAIR      62  45  53 SE14G23   29.58F
DICKINSON      FAIR      59  42  53 SE12G22   29.62F
HETTINGER      FAIR      63  48  58 SE22G28   29.63F
$$

 *****  OTHER AIRPORT OBSERVATIONS IN OUR AREA  *****

CITY           SKY/WX    TMP DP  RH WIND       PRES   REMARKS
WALHALLA       FAIR     N/A N/A N/A SE5       29.80F
GRAFTON AIRPOR CLOUDY    57  57 100 SE8       29.83S
VALLEY CITY AR FOG       57  57 100 SE10      29.80S VSB<1/4
CANDO          CLOUDY    52  52 100 E9        29.79S FOG
CAVALIER APRT  CLOUDY    55  55 100 CALM      29.81F
GWINNER        CLOUDY    61  59  94 SE8G16    29.80S FOG
ROLLA          PTSUNNY   48  48 100 CALM      29.79S FOG
 ***** THE ABOVE OBSERVATIONS ARE NON NWS ARE NOT QUALITY
       CONTROLLED AND MAY MIS-REPORT RAIN FOR SNOW...
$$

  *****  WEATHER ACROSS NORTHERN MINNESOTA  *****

CITY           SKY/WX    TMP DP  RH WIND       PRES   REMARKS
FLAG ISLAND    MOCLDY    57  54  88 S13       29.89S
WARROAD        CLOUDY    55  52  88 SE6       29.90R FOG
ROSEAU           N/A     57  54  88 SE5       29.89R
HALLOCK        MOCLDY    57  55  94 SE9       29.83F
THF RVR FALLS  CLOUDY    58  56  93 SE8       29.87S
BAUDETTE       CLOUDY    54  54 100 SE9       29.92S
WASKISH        CLOUDY    54  54 100 SE6       29.92S FOG
CROOKSTON      MOCLDY    59  57  94 SE9         N/A
STEPHEN NDAWN    N/A     57  55  94 SE7         N/A
GREENBUSH NDAW   N/A     57  55  94 SE6         N/A
$$
  *****  WEATHER ACROSS CENTRAL AND WEST MINNESOTA  *****

CITY           SKY/WX    TMP DP  RH WIND       PRES   REMARKS
FOSSTON        CLOUDY    55  54  94 SE5       29.88S
BEMIDJI        CLOUDY    54  53  95 SE10      29.91S
PARK RAPIDS    CLOUDY    55  53  93 SE9       29.91S
ELBOW LAKE     CLOUDY    57  57 100 E10       29.87S FOG
WADENA         CLOUDY    54  54 100 SE8       29.91R FOG
DETROIT LAKES  CLOUDY    55  55 100 SE12      29.88F FOG
MOORHEAD       CLOUDY    61  57  88 SE13      29.84S
FERGUS FALLS   CLOUDY    59  59 100 SE9       29.87S FOG
MORRIS MN      FOG       61  59  94 SE12      29.86F VSB 1/4
STAPLES        CLOUDY    54  54 100 SE6       29.92S FOG
$$
  *****  WEATHER ELSEWHERE ACROSS MINNESOTA  *****

CITY           SKY/WX    TMP DP  RH WIND       PRES   REMARKS
DULUTH         CLOUDY    54  53  97 SE6       29.98S
INTRNTL FALLS  CLOUDY    54  51  90 VRB5      29.95R
ELY            CLOUDY    54  48  82 S5        29.99S
CLOQUET        DRIZZLE   54  52  94 CALM      29.98S
WHEATON        CLOUDY    61  59  94 SE12      29.85F FOG
BRAINERD       CLOUDY    54  53  97 SE5       29.94S FOG
HIBBING        CLOUDY    52  49  89 SE5       29.97S
ALEXANDRIA     FOG       57  57 100 SE10      29.91F VSB 1/2
SAINT CLOUD    CLOUDY    56  56 100 E5        29.92F FOG
MINNEAPOLIS    CLOUDY    59  57  93 SE7       29.93F
$$

  *****  WEATHER ACROSS SOUTH DAKOTA  *****

CITY           SKY/WX    TMP DP  RH WIND       PRES   REMARKS
SIOUX FALLS    CLOUDY    68  66  93 S14       29.85S
BROOKINGS      CLOUDY    64  63  96 S10       29.84F
WATERTOWN      CLOUDY    63  63 100 S13       29.82F FOG
HURON          FAIR      63  63 100 SE13G20   29.76F
SISSETON         N/A     62  62 100 SE10      29.81F
ABERDEEN       FAIR      62  61  96 SE10      29.76F
MITCHELL       CLOUDY    66  65  96 SE14G21   29.79F
PIERRE         FAIR      63  58  83 SE13      29.67F
MOBRIDGE       FAIR      60  54  80 SE10      29.67F
RAPID CITY     NOT AVBL
$$

  *****  SOME WEATHER IN NEARBY STATES *****

CITY           SKY/WX    TMP DP  RH WIND       PRES   REMARKS
GLASGOW MT     MOCLDY    61  46  57 N9        29.52F
GREAT FALLS MT FAIR      46  34  62 SW13      29.63S
CHEYENNE WY    FAIR      55  31  39 SW5       29.84F
SCOTTSBLUFF NE FAIR      61  46  57 E10       29.74F
OMAHA NE       MOCLDY    67  64  90 SE12      29.88F
DES MOINES IA  FOG       64  64 100 SE7       29.92F VSB 1/8
DAVENPORT IA   FAIR      63  61  93 E10       29.96S
CHICAGO IL     LGT RAIN  67  63  87 NE6       29.95F
EAU CLAIRE WI  CLOUDY    57  56  96 E3        29.96F
LA CROSSE WI   CLOUDY    61  60  97 SE3       29.96S
$$

  *****  SOME NATIONAL WEATHER *****

CITY           SKY/WX    TMP DP  RH WIND       PRES   REMARKS
LA GUARDIA NY  CLOUDY    71  68  90 NE15      30.03F
RALEIGH NC     FAIR      66  65  96 NW5       29.98F
ATLANTA GA     FAIR      70  65  84 NW3       29.99F
NEW ORLEANS LA FAIR      76  74  93 CALM      29.96F
OKLAHOMA CITY  FAIR      70  65  84 S8        29.90F
ALBUQUERQUE NM FAIR      61  27  27 S8        30.08R
SALT LAKE CITY CLOUDY    65  46  50 W16       29.76R
LOS ANGELES CA CLOUDY    66  61  84 W6        29.93S
BOISE ID       FAIR      48  43  82 SE7       29.80S
SEATTLE WA     CLOUDY    51  46  83 S12       29.70S
$$

*** WEATHER ACROSS MANITOBA...SASKATCHEWAN AND ONTARIO ***
                ***ONTARIO***

CITY           SKY/WX    TMP DP  RH WIND       PRES   REMARKS
GERALDTON      PTCLDY    43  41  93 CALM      30.06S
THUNDER BAY    CLOUDY    55  54  94 CALM      30.03F
SIOUX LOOKOUT  CLOUDY    55  50  82 S3        29.96R
TORONTO        MOCLDY    66  64  94 N8        30.01F
BIG TROUT LK   CLOUDY    43  41  93 W6        30.00R
PICKLE LAKE    NOT AVBL
DRYDEN         MOCLDY    54  50  87 S8        29.95S
KENORA         CLOUDY    54  52  94 S7        29.92S
$$
                *** MANITOBA***

CITY           SKY/WX    TMP DP  RH WIND       PRES   REMARKS
BRANDON        PTCLDY    48  46  93 E7        29.78F
DAUPHIN        PTCLDY    52  48  87 SE13      29.78F
ISLAND LAKE    NOT AVBL
PILOT MOUND      N/A     52  50  93 SE10        N/A
THE PAS        CLEAR     46  39  76 E9        29.82F
THOMPSON       MOCLDY    37  36  93 VRB2      29.92S
WINNIPEG       PTCLDY    55  52  88 SE8       29.83F
LYNN LAKE      CLEAR     39  36  87 E3        29.88F
CHURCHILL      CLOUDY    37  36  93 SW3       29.94S
GILLAM         CLEAR     36  36 100 SW6       29.95S
$$
                ***SASKATCHEWAN***

CITY           SKY/WX    TMP DP  RH WIND       PRES   REMARKS
ESTEVAN        CLOUDY    55  48  76 E14G21    29.64F
KINDERSLEY     CLOUDY    57  43  58 SE14      29.48R
LLOYDMINSTER   CLOUDY    52  43  71 E10       29.48F
PRINCE ALBERT  LGT RAIN  52  45  76 E16G23    29.64F
REGINA         MOCLDY    59  45  58 SE18      29.58F
YORKTON        CLOUDY    57  48  72 SE14      29.70S
N. BATTLEFORD  LGT RAIN  54  46  76 E15       29.52F
LA RONGE       CLOUDY    50  41  71 E14       29.72F
SASKATOON      CLOUDY    55  46  71 E7        29.51F
SWIFT CURRENT  CLOUDY    59  37  44 S12       29.51F
$$
NOTE: THESE ARE AUTOMATED STATIONS WITH LIMITED QUALITY CONTROL
      "FAIR" INDICATES FEW OR NO CLOUDS BELOW 12,000 FEET WITH NO
      SIGNIFICANT WEATHER AND/OR OBSTRUCTIONS TO VISIBILITY.
      SKY/WX - SKY CONDITION AND SIGNIFICANT WEATHER.
      TMP - AIR TEMPERATURE.    DP   - DEWPOINT TEMPERATURE.
      RH  - RELATIVE HUMIDITY.  PRES - PRESSURE.
      HX  - HEAT INDEX.         WCI  - WIND CHILL INDEX.
$



USA.gov is the U.S. government's official web portal to all federal, state and local government web resources and services.